User: anonymous   Login
Location: Ellerstadt
(49.4644°N, 8.2615°E)
Time: 19:30:06
(UTC+00:00)
Language:

COSMOS 1818 DEB - Orbit

View from above orbital plane
View from above orbital plane
View from above satellite
View from above satellite

Ground track
Ground track

The orbit data is extracted from the following two-line orbital elements,

1 35518U 87011J   21251.88292613  .00000069  00000-0  60400-4 0  9998
2 35518  65.0093  53.5000 0021084 269.2353  90.6317 14.34237234674999
Epoch (UTC): 08 September 2021 21:11:24
Eccentricity: 0.0021084
inclination: 65.0093°
perigee height: 762 km
apogee height: 792 km
right ascension of ascending node: 53.5000°
argument of perigee: 269.2353°
revolutions per day: 14.34237234
mean anomaly at epoch: 90.6317°
orbit number at epoch: 67499

The dashed part of the orbit path shows where the satellite is in the earth's shadow,  

DLR